Location: Bernay
(48.6766°N, 2.9386°E)
Time: 04:11:00
(UTC+00:00)

BREEZE-M DEB (TANK) - Visible Passes

Search period start: 21 April 2026 00:00
Search period end: 01 May 2026 00:00
Orbit: 345 x 14318 km, 49.5° (Epoch: 20 April)

Date Brightness Start Highest point End Pass type
(mag) Time Alt. Az. Time Alt. Az. Time Alt. Az.
21 Apr 6.8 03:24:30 10° WSW 04:29:21 88° N 04:39:19 10° E visible
21 Apr 8.7 21:00:29 20° SE 21:36:37 27° ESE 22:05:07 10° ENE visible
22 Apr 7.5 01:25:41 22° SW 02:31:24 79° SSE 02:46:46 10° ENE visible
22 Apr 8.2 22:48:51 10° S 00:30:55 60° SE 00:53:34 10° ENE visible
23 Apr 8.6 21:01:26 10° SSE 22:29:46 40° ESE 22:58:47 10° ENE visible
24 Apr 7.1 02:02:48 10° WSW 03:25:03 88° SSE 03:37:24 10° ENE visible
24 Apr 8.9 19:41:41 10° SE 20:32:13 20° ESE 20:58:34 10° ENE visible
24 Apr 7.8 23:42:44 10° SSW 01:25:41 72° SSE 01:44:32 10° ENE visible
25 Apr 8.5 21:43:23 10° S 23:24:10 52° SE 23:50:45 10° ENE visible
26 Apr 6.7 03:13:56 10° WSW 04:18:00 87° N 04:27:51 10° E visible
26 Apr 8.7 20:05:32 10° SSE 21:23:50 32° ESE 21:54:33 10° ENE visible
27 Apr 7.5 00:43:19 10° SW 02:19:53 83° SSE 02:35:11 10° ENE visible
27 Apr 9.0 19:04:57 10° ESE 19:28:50 13° E 19:45:54 10° ENE visible
27 Apr 8.2 22:32:23 10° SSW 00:19:02 65° SE 00:41:55 10° ENE visible
28 Apr 8.5 20:41:23 10° SSE 22:17:11 45° ESE 22:47:19 10° ENE visible
29 Apr 7.1 01:50:50 10° WSW 03:13:22 90° NNW 03:25:36 10° E visible
29 Apr 8.8 19:14:59 10° SE 20:18:37 24° ESE 20:48:45 10° ENE visible
29 Apr 7.8 23:27:41 10° SSW 01:13:44 76° SSE 01:32:37 10° ENE visible
30 Apr 8.5 21:25:28 10° S 23:11:40 57° SE 23:38:49 10° ENE visible
